Change the Weather History Date:

Wednesday, June 27, 2012

  Actual Average Record
Temperature  
Mean Temperature 76 °F 74 °F  
Max Temperature 92 °F 85 °F 102 °F (1934)
Min Temperature 60 °F 64 °F 46 °F (1992)
Degree Days  
Heating Degree Days 0 0  
Month to date heating degree days 15 17  
Since 1 June heating degree days 15 17  
Since 1 July heating degree days 5050 6201  
Cooling Degree Days 11 10  
Month to date cooling degree days 189 185  
Year to date cooling degree days 338 261  
Since 1 June cooling degree days 189 185  
Growing Degree Days 26 (Base 50)    
Moisture  
Dew Point 59 °F    
Average Humidity 58    
Maximum Humidity 78    
Minimum Humidity 38    
Precipitation  
Precipitation 0.00 in 0.16 in 1.75 in (1918)
Month to date precipitation 1.14 4.03  
Year to date precipitation 14.30 17.89  
Snow  
Snow 0.00 in 0.00 in - ()
Month to date snowfall 0.0 0.0  
Since 1 June snowfall 0.0 0.0  
Since 1 July snowfall 16.9 31.6  
Snow Depth 0.00 in    
Sea Level Pressure  
Sea Level Pressure 29.83 in    
Wind  
Wind Speed 9 mph (South)    
Max Wind Speed 20 mph    
Max Gust Speed 30 mph    
Visibility 10 miles    
Events      
T = Trace of Precipitation, MM = Missing Value Source: NWS Daily Summary

Daily Weather History Graph

Daily Weather History Graph

Search for Another Location

Airport or City:

Trip Planner

Search our weather history database for the weather conditions in past years. The results will help you decide how hot, cold, wet, or windy it might be!

Date:

Astronomy

Jun. 27, 2012 Rise Set
Actual Time 5:30 AM CDT 8:39 PM CDT
Civil Twilight 4:56 AM CDT 9:13 PM CDT
Nautical Twilight 4:13 AM CDT 9:57 PM CDT
Astronomical Twilight 3:21 AM CDT 10:49 PM CDT
Moon 2:01 PM CDT (6/27) 12:33 AM CDT (6/27)
Length of Visible Light 16h 17m
Length of Day
15h 09m
First Quarter, 56% of the Moon is Illuminated
Jun 27
First Quarter
Jul 3
Full
Jul 10
Last Quarter
Jul 18
New
Jul 26
First Quarter

Hourly Weather History & Observations

Time (CDT) Temp. Heat Index Dew Point Humidity Pressure Visibility Wind Dir Wind Speed Gust Speed Precip Events Conditions
12:52 AM 61.0 °F - 53.1 °F 75% 29.90 in 10.0 mi ESE 3.5 mph - N/A   Clear
1:52 AM 61.0 °F - 54.0 °F 78% 29.90 in 10.0 mi SE 5.8 mph - N/A   Clear
2:52 AM 62.1 °F - 54.0 °F 75% 29.88 in 10.0 mi SE 9.2 mph - N/A   Clear
3:52 AM 61.0 °F - 53.1 °F 75% 29.87 in 10.0 mi SSE 6.9 mph - N/A   Clear
4:52 AM 62.1 °F - 52.0 °F 70% 29.87 in 10.0 mi South 9.2 mph - N/A   Clear
5:52 AM 61.0 °F - 51.1 °F 70% 29.89 in 10.0 mi Calm Calm - N/A   Clear
6:52 AM 66.0 °F - 52.0 °F 60% 29.91 in 10.0 mi Variable 4.6 mph - N/A   Clear
7:52 AM 70.0 °F - 51.1 °F 51% 29.91 in 10.0 mi South 12.7 mph - N/A   Clear
8:52 AM 73.9 °F - 53.1 °F 48% 29.91 in 10.0 mi South 9.2 mph - N/A   Clear
9:52 AM 78.1 °F - 53.1 °F 42% 29.89 in 10.0 mi South 11.5 mph 20.7 mph N/A   Clear
10:52 AM 82.0 °F 81.6 °F 55.9 °F 41% 29.88 in 10.0 mi South 15.0 mph 19.6 mph N/A   Clear
11:52 AM 84.0 °F 83.3 °F 57.0 °F 40% 29.85 in 10.0 mi South 16.1 mph 24.2 mph N/A   Clear
12:52 PM 87.1 °F 86.5 °F 59.0 °F 39% 29.82 in 10.0 mi South 13.8 mph 23.0 mph N/A   Clear
1:52 PM 88.0 °F 87.6 °F 60.1 °F 39% 29.79 in 10.0 mi South 16.1 mph 26.5 mph N/A   Clear
2:52 PM 89.1 °F 89.0 °F 61.0 °F 39% 29.78 in 10.0 mi South 15.0 mph 29.9 mph N/A   Clear
3:52 PM 90.0 °F 90.6 °F 63.0 °F 40% 29.76 in 10.0 mi South 12.7 mph 26.5 mph N/A   Clear
4:52 PM 91.0 °F 93.0 °F 64.9 °F 42% 29.76 in 10.0 mi SSW 8.1 mph 18.4 mph N/A   Clear
5:52 PM 90.0 °F 92.8 °F 66.9 °F 46% 29.75 in 10.0 mi South 8.1 mph - N/A   Clear
6:52 PM 89.1 °F 93.7 °F 69.1 °F 52% 29.74 in 10.0 mi SSE 4.6 mph - N/A   Clear
7:52 PM 84.0 °F 87.8 °F 69.1 °F 61% 29.74 in 10.0 mi SSE 5.8 mph - N/A   Clear
8:52 PM 82.0 °F 84.9 °F 68.0 °F 62% 29.74 in 10.0 mi South 4.6 mph - N/A   Clear
9:52 PM 80.1 °F 82.3 °F 66.9 °F 64% 29.75 in 10.0 mi SSW 5.8 mph - N/A   Clear
10:52 PM 80.1 °F 82.3 °F 66.9 °F 64% 29.75 in 10.0 mi SSW 8.1 mph - N/A   Clear
11:52 PM 80.1 °F 82.3 °F 66.9 °F 64% 29.76 in 10.0 mi SW 3.5 mph - N/A   Clear